Fairbanks Ft. Wainwright, AK

11:40 PM AKDT on September 23, 2017 (GMT -0800)
Ladd Army Air Field

Weather History for PAFB - January, 2013

Change the Weather History Date:

Sunday, January 20, 2013

  Actual Average Record
Temperature  
Mean Temperature 6 °F -  
Max Temperature 12 °F 0 °F 32 °F (2014)
Min Temperature 1 °F -11 °F -43 °F (1999)
Degree Days  
Heating Degree Days 58    
Moisture  
Dew Point 3 °F    
Average Humidity 78    
Maximum Humidity 85    
Minimum Humidity 60    
Precipitation  
Precipitation 0.12 in - - ()
Sea Level Pressure  
Sea Level Pressure 30.08 in    
Wind  
Wind Speed 5 mph (ENE)    
Max Wind Speed 9 mph    
Max Gust Speed -    
Visibility 5 miles    
Events Fog , Snow    
Averages and records for this station are not official NWS values.
T = Trace of Precipitation, MM = Missing Value Source: NWS Daily Summary

Daily Weather History Graph

Daily Weather History Graph

Search for Another Location

Airport or City:

Trip Planner

Search our weather history database for the weather conditions in past years. The results will help you decide how hot, cold, wet, or windy it might be!

Date:

Astronomy

Jan. 20, 2013 Rise Set
Actual Time 10:11 AM AKST 3:52 PM AKST
Civil Twilight 9:04 AM AKST 4:59 PM AKST
Nautical Twilight 8:00 AM AKST 6:03 PM AKST
Astronomical Twilight 7:01 AM AKST 7:02 PM AKST
Moon 11:06 AM AKST (1/20) 4:41 AM AKST (1/20)
Length of Visible Light 7h 54m
Length of Day
5h 41m
Waxing Gibbous, 67% of the Moon is Illuminated
Jan 20
Waxing Gibbous
Jan 26
Full
Feb 3
Last Quarter
Feb 9
New
Feb 17
First Quarter

Hourly Weather History & Observations

Time (AKST) Temp. Windchill Dew Point Humidity Pressure Visibility Wind Dir Wind Speed Gust Speed Precip Events Conditions
12:56 AM 1.9 °F -11.8 °F -7.1 °F 66% 30.13 in 10.0 mi ENE 8.1 mph - N/A   Clear
1:56 AM 3.9 °F -6.9 °F -7.1 °F 60% 30.12 in 10.0 mi ENE 5.8 mph - N/A   Partly Cloudy
2:56 AM 3.9 °F -8.2 °F -6.0 °F 64% 30.10 in 10.0 mi NE 6.9 mph - N/A   Partly Cloudy
3:56 AM 7.0 °F 0.1 °F -4.0 °F 61% 30.10 in 10.0 mi NE 3.5 mph - N/A   Overcast
4:56 AM 8.1 °F -2.0 °F -2.9 °F 61% 30.10 in 10.0 mi ENE 5.8 mph - N/A   Overcast
5:51 AM 6.8 °F -5.9 °F -2.2 °F 67% 30.05 in 2.5 mi ENE 8.1 mph - 0.00 in Snow Light Snow
5:52 AM 7.0 °F -5.7 °F -2.0 °F 67% 30.09 in 2.5 mi ENE 8.1 mph - 0.00 in Snow Light Snow
6:04 AM 6.8 °F -5.9 °F -0.4 °F 72% 30.04 in 1.2 mi ENE 8.1 mph - 0.00 in Snow Light Snow
6:11 AM 6.8 °F -6.9 °F -0.4 °F 72% 30.04 in 0.8 mi ENE 9.2 mph - 0.00 in Snow Light Snow
6:25 AM 6.8 °F -5.9 °F 1.4 °F 79% 30.04 in 0.5 mi ENE 8.1 mph - 0.01 in Fog , Snow Snow
6:40 AM 6.8 °F -3.5 °F 1.4 °F 79% 30.04 in 1.0 mi ENE 5.8 mph - 0.01 in Snow Light Snow
6:52 AM 6.8 °F -2.0 °F 1.4 °F 79% 30.04 in 1.5 mi ENE 4.6 mph - 0.02 in Snow Light Snow
6:56 AM 7.0 °F -3.3 °F 1.9 °F 80% 30.08 in 1.8 mi NE 5.8 mph - 0.02 in Snow Light Snow
6:59 AM 6.8 °F -4.8 °F 1.4 °F 79% 30.04 in - ENE 6.9 mph - 0.00 in Snow Light Snow
7:14 AM 6.8 °F -4.8 °F 1.4 °F 79% 30.04 in - ENE 6.9 mph - 0.00 in Snow Light Snow
7:56 AM 7.0 °F -1.7 °F 3.0 °F 84% 30.07 in 4.0 mi ENE 4.6 mph - 0.00 in Snow Light Snow
8:56 AM 6.1 °F -2.8 °F 1.9 °F 83% 30.08 in 10.0 mi ENE 4.6 mph - 0.00 in   Clear
9:56 AM 7.0 °F -5.7 °F 1.0 °F 77% 30.07 in 10.0 mi NNE 8.1 mph - N/A   Clear
10:56 AM 9.0 °F 0.6 °F 3.0 °F 77% 30.09 in 10.0 mi ENE 4.6 mph - N/A   Mostly Cloudy
11:56 AM 9.0 °F -0.9 °F 3.0 °F 77% 30.09 in 10.0 mi NE 5.8 mph - N/A   Overcast
12:56 PM 10.9 °F 2.9 °F 3.0 °F 70% 30.09 in 10.0 mi ENE 4.6 mph - N/A   Overcast
1:56 PM 12.0 °F - 3.9 °F 70% 30.09 in 10.0 mi Calm Calm - 0.00 in   Overcast
2:56 PM 12.0 °F 2.7 °F 3.9 °F 70% 30.08 in 10.0 mi NE 5.8 mph - 0.00 in   Overcast
3:32 PM 10.4 °F 2.2 °F 5.0 °F 79% 30.05 in 2.5 mi ENE 4.6 mph - 0.00 in Snow Light Snow
3:53 PM 10.4 °F 4.0 °F 6.8 °F 85% 30.05 in 4.0 mi ENE 3.5 mph - 0.00 in   Haze
3:56 PM 10.9 °F 4.7 °F 6.1 °F 81% 30.09 in 5.0 mi ENE 3.5 mph - 0.00 in   Haze
4:36 PM 10.4 °F - 6.8 °F 85% 30.06 in - Calm Calm - 0.00 in Snow Light Snow
4:54 PM 10.4 °F 4.0 °F 6.8 °F 85% 30.06 in - NE 3.5 mph - 0.00 in Snow Light Snow
4:56 PM 10.9 °F 4.7 °F 6.1 °F 81% 30.10 in 2.0 mi NE 3.5 mph - 0.00 in Snow Light Snow
5:13 PM 10.4 °F 2.2 °F 6.8 °F 85% 30.05 in 1.8 mi NE 4.6 mph - 0.01 in Snow Light Snow
5:54 PM 12.2 °F - 6.8 °F 79% 30.05 in - Calm Calm - 0.01 in Snow Light Snow
5:56 PM 12.0 °F - 7.0 °F 80% 30.09 in 2.0 mi Calm Calm - 0.01 in Snow Light Snow
6:09 PM 12.2 °F 6.1 °F 6.8 °F 79% 30.05 in 1.8 mi East 3.5 mph - 0.01 in Snow Light Snow
6:56 PM 10.9 °F - 7.0 °F 84% 30.09 in 1.5 mi Calm Calm - 0.02 in Snow Light Snow
7:56 PM 10.9 °F 2.9 °F 7.0 °F 84% 30.10 in 1.2 mi East 4.6 mph - 0.02 in Snow Light Snow
8:56 PM 10.9 °F 4.7 °F 7.0 °F 84% 30.10 in 1.2 mi East 3.5 mph - 0.02 in Snow Light Snow
9:34 PM 10.4 °F - 6.8 °F 85% 30.07 in 2.5 mi Calm Calm - 0.01 in Snow Light Snow
9:37 PM 10.4 °F 4.0 °F 6.8 °F 85% 30.07 in - NNE 3.5 mph - 0.01 in Snow Light Snow
9:54 PM 10.4 °F 4.0 °F 6.8 °F 85% 30.07 in - NE 3.5 mph - 0.01 in Snow Light Snow
9:56 PM 10.9 °F 4.7 °F 6.1 °F 81% 30.11 in 2.5 mi NE 3.5 mph - 0.01 in Snow Light Snow
10:05 PM 10.4 °F 2.2 °F 6.8 °F 85% 30.07 in 1.2 mi NE 4.6 mph - 0.00 in Snow Light Snow
10:36 PM 10.4 °F 2.2 °F 6.8 °F 85% 30.08 in - NE 4.6 mph - 0.01 in Snow Light Snow
10:56 PM 10.9 °F 4.7 °F 7.0 °F 84% 30.12 in 1.8 mi NNE 3.5 mph - 0.01 in Snow Light Snow
11:09 PM 10.4 °F 2.2 °F 6.8 °F 85% 30.08 in 2.0 mi NE 4.6 mph - 0.01 in Snow Light Snow
11:56 PM 10.9 °F 2.9 °F 6.1 °F 81% 30.12 in 2.0 mi NE 4.6 mph - 0.01 in Snow Light Snow